• In Hungary
  • List of Countries
  • For 7 days
  • Water Temperature
  • Satellite Maps
  • Weather Map
  • News
  • Weather Widgets
  • user-avatar
    Login

    Hourly Weather Las Vegas

    Today, 18 June, Monday

    Time Temperature Precipitation Wind Pressure Humidity
    00:00 +25°C° 0 mm 3 mps 705 mmHg 26%
    01:00 +24°C° 0 mm 3 mps 706 mmHg 28%
    02:00 +23°C° 0 mm 2 mps 706 mmHg 29%
    03:00 +23°C° 0 mm 2 mps 706 mmHg 30%
    04:00 +21°C° 0 mm 2 mps 706 mmHg 31%
    05:00 +23°C° 0 mm 2 mps 707 mmHg 29%
    06:00 +25°C° 0 mm 1 mps 707 mmHg 26%
    07:00 +26°C° 0 mm 1 mps 708 mmHg 24%
    08:00 +27°C° 0 mm 1 mps 708 mmHg 21%
    09:00 +29°C° 0 mm 1 mps 708 mmHg 18%
    10:00 +30°C° 0 mm 2 mps 708 mmHg 15%
    11:00 +31°C° 0 mm 2 mps 708 mmHg 13%
    12:00 +32°C° 0 mm 2 mps 708 mmHg 12%
    13:00 +35°C° 0 mm 2 mps 708 mmHg 10%
    14:00 +35°C° 0 mm 2 mps 707 mmHg 9%
    15:00 +36°C° 0 mm 2 mps 707 mmHg 9%
    16:00 +36°C° 0 mm 3 mps 707 mmHg 8%
    17:00 +36°C° 0 mm 2 mps 707 mmHg 9%
    18:00 +35°C° 0 mm 2 mps 707 mmHg 9%
    19:00 +34°C° 0 mm 2 mps 707 mmHg 10%
    20:00 +32°C° 0 mm 2 mps 707 mmHg 10%
    21:00 +31°C° 0 mm 2 mps 707 mmHg 11%
    22:00 +30°C° 0 mm 2 mps 708 mmHg 12%
    23:00 +30°C° 0 mm 2 mps 708 mmHg 13%

    Tomorrow, 19 June, Tuesday

    Time Temperature Precipitation Wind Pressure Humidity
    00:00 +29°C° 0 mm 2 mps 708 mmHg 14%
    01:00 +28°C° 0 mm 1 mps 708 mmHg 14%
    02:00 +27°C° 0 mm 1 mps 708 mmHg 15%
    03:00 +27°C° 0 mm 1 mps 708 mmHg 16%
    04:00 +26°C° 0 mm 1 mps 708 mmHg 17%
    05:00 +28°C° 0 mm 2 mps 708 mmHg 17%
    06:00 +29°C° 0 mm 2 mps 709 mmHg 16%
    07:00 +31°C° 0 mm 2 mps 709 mmHg 15%
    08:00 +32°C° 0 mm 2 mps 709 mmHg 14%
    09:00 +34°C° 0 mm 2 mps 709 mmHg 14%
    10:00 +35°C° 0 mm 2 mps 709 mmHg 13%
    11:00 +36°C° 0 mm 2 mps 709 mmHg 12%
    12:00 +36°C° 0 mm 1 mps 709 mmHg 11%
    13:00 +37°C° 0 mm 1 mps 708 mmHg 10%
    14:00 +37°C° 0 mm 1 mps 708 mmHg 10%
    15:00 +39°C° 0 mm 1 mps 708 mmHg 9%
    16:00 +39°C° 0 mm 1 mps 707 mmHg 9%
    17:00 +37°C° 0 mm 1 mps 707 mmHg 9%
    18:00 +37°C° 0 mm 1 mps 707 mmHg 10%
    19:00 +36°C° 0 mm 1 mps 707 mmHg 10%
    20:00 +35°C° 0 mm 1 mps 707 mmHg 11%
    21:00 +34°C° 0 mm 1 mps 708 mmHg 12%
    22:00 +33°C° 0 mm 1 mps 708 mmHg 13%
    23:00 +32°C° 0 mm 1 mps 708 mmHg 13%

    Day after tomorrow, 20 June, Wednesday

    Time Temperature Precipitation Wind Pressure Humidity
    00:00 +31°C° 0 mm 1 mps 708 mmHg 14%
    01:00 +31°C° 0 mm 1 mps 707 mmHg 14%
    02:00 +30°C° 0 mm 1 mps 708 mmHg 15%
    03:00 +30°C° 0 mm 1 mps 708 mmHg 15%
    04:00 +29°C° 0 mm 1 mps 708 mmHg 15%
    05:00 +31°C° 0 mm 2 mps 708 mmHg 15%
    06:00 +32°C° 0 mm 2 mps 709 mmHg 14%
    07:00 +35°C° 0 mm 3 mps 709 mmHg 13%
    08:00 +36°C° 0 mm 3 mps 709 mmHg 13%
    09:00 +37°C° 0 mm 2 mps 709 mmHg 12%
    10:00 +38°C° 0 mm 2 mps 709 mmHg 11%
    11:00 +39°C° 0 mm 2 mps 709 mmHg 11%
    12:00 +40°C° 0 mm 2 mps 709 mmHg 10%
    13:00 +41°C° 0 mm 1 mps 708 mmHg 9%
    14:00 +41°C° 0 mm 1 mps 708 mmHg 9%
    15:00 +42°C° 0 mm 1 mps 707 mmHg 8%
    16:00 +42°C° 0 mm 1 mps 707 mmHg 8%
    17:00 +41°C° 0 mm 1 mps 707 mmHg 8%
    18:00 +40°C° 0 mm 1 mps 707 mmHg 9%
    19:00 +39°C° 0 mm 1 mps 707 mmHg 10%
    20:00 +37°C° 0 mm 1 mps 707 mmHg 11%
    21:00 +36°C° 0 mm 1 mps 707 mmHg 11%
    22:00 +35°C° 0 mm 1 mps 708 mmHg 12%
    23:00 +34°C° 0 mm 1 mps 707 mmHg 13%

    21 June, Thursday

    Time Temperature Precipitation Wind Pressure Humidity
    00:00 +33°C° 0 mm 1 mps 707 mmHg 13%
    01:00 +32°C° 0 mm 1 mps 707 mmHg 14%
    02:00 +32°C° 0 mm 1 mps 707 mmHg 15%
    03:00 +31°C° 0 mm 1 mps 707 mmHg 15%
    04:00 +31°C° 0 mm 1 mps 707 mmHg 16%
    05:00 +32°C° 0 mm 1 mps 707 mmHg 14%
    06:00 +34°C° 0 mm 1 mps 708 mmHg 13%
    07:00 +36°C° 0 mm 1 mps 709 mmHg 11%
    08:00 +37°C° 0 mm 1 mps 709 mmHg 10%
    09:00 +40°C° 0 mm 2 mps 709 mmHg 9%
    10:00 +41°C° 0 mm 2 mps 709 mmHg 8%
    11:00 +42°C° 0 mm 2 mps 708 mmHg 7%
    12:00 +44°C° 0 mm 3 mps 708 mmHg 7%
    13:00 +45°C° 0 mm 4 mps 708 mmHg 6%
    14:00 +47°C° 0 mm 4 mps 707 mmHg 6%
    15:00 +47°C° 0 mm 5 mps 707 mmHg 6%
    16:00 +47°C° 0 mm 6 mps 706 mmHg 6%
    17:00 +46°C° 0 mm 5 mps 706 mmHg 6%
    18:00 +45°C° 0 mm 5 mps 706 mmHg 7%
    19:00 +43°C° 0 mm 4 mps 706 mmHg 7%
    20:00 +41°C° 0 mm 4 mps 706 mmHg 8%
    21:00 +40°C° 0 mm 4 mps 706 mmHg 9%
    22:00 +38°C° 0 mm 3 mps 707 mmHg 9%
    23:00 +37°C° 0 mm 3 mps 706 mmHg 10%

    22 June, Friday

    Time Temperature Precipitation Wind Pressure Humidity
    00:00 +36°C° 0 mm 3 mps 706 mmHg 12%
    01:00 +35°C° 0 mm 3 mps 706 mmHg 13%
    02:00 +34°C° 0 mm 2 mps 706 mmHg 14%
    03:00 +32°C° 0 mm 2 mps 706 mmHg 15%
    04:00 +31°C° 0 mm 2 mps 706 mmHg 16%
    05:00 +32°C° 0 mm 2 mps 706 mmHg 14%
    06:00 +35°C° 0 mm 2 mps 707 mmHg 13%
    07:00 +36°C° 0 mm 2 mps 707 mmHg 12%
    08:00 +38°C° 0 mm 2 mps 707 mmHg 10%
    09:00 +39°C° 0 mm 2 mps 707 mmHg 9%
    10:00 +42°C° 0 mm 3 mps 707 mmHg 7%
    11:00 +43°C° 0 mm 3 mps 707 mmHg 6%
    12:00 +44°C° 0 mm 3 mps 706 mmHg 6%
    13:00 +45°C° 0 mm 4 mps 706 mmHg 5%
    14:00 +45°C° 0 mm 4 mps 705 mmHg 5%
    15:00 +45°C° 0 mm 4 mps 705 mmHg 4%
    16:00 +46°C° 0 mm 5 mps 704 mmHg 4%
    17:00 +45°C° 0 mm 5 mps 704 mmHg 4%
    18:00 +43°C° 0 mm 4 mps 704 mmHg 4%
    19:00 +42°C° 0 mm 4 mps 704 mmHg 4%
    20:00 +40°C° 0 mm 4 mps 704 mmHg 5%
    21:00 +38°C° 0 mm 3 mps 704 mmHg 5%
    22:00 +37°C° 0 mm 3 mps 704 mmHg 5%
    23:00 +36°C° 0 mm 2 mps 704 mmHg 6%

    23 June, Saturday

    Time Temperature Precipitation Wind Pressure Humidity
    00:00 +35°C° 0 mm 2 mps 704 mmHg 7%
    01:00 +34°C° 0 mm 2 mps 704 mmHg 7%
    02:00 +32°C° 0 mm 2 mps 704 mmHg 8%
    03:00 +31°C° 0 mm 2 mps 704 mmHg 9%
    04:00 +31°C° 0 mm 2 mps 704 mmHg 10%
    05:00 +32°C° 0 mm 2 mps 705 mmHg 10%
    06:00 +35°C° 0 mm 3 mps 705 mmHg 10%
    07:00 +36°C° 0 mm 3 mps 706 mmHg 10%
    08:00 +37°C° 0 mm 4 mps 706 mmHg 9%
    09:00 +38°C° 0 mm 4 mps 706 mmHg 9%
    10:00 +40°C° 0 mm 4 mps 706 mmHg 9%
    11:00 +40°C° 0 mm 3 mps 706 mmHg 8%
    12:00 +42°C° 0 mm 3 mps 705 mmHg 8%
    13:00 +42°C° 0 mm 3 mps 705 mmHg 7%
    14:00 +43°C° 0 mm 3 mps 705 mmHg 7%
    15:00 +43°C° 0 mm 3 mps 705 mmHg 6%
    16:00 +43°C° 0 mm 3 mps 704 mmHg 6%
    17:00 +42°C° 0 mm 3 mps 704 mmHg 6%
    18:00 +41°C° 0 mm 4 mps 704 mmHg 7%
    19:00 +40°C° 0 mm 4 mps 704 mmHg 7%
    20:00 +38°C° 0 mm 3 mps 705 mmHg 7%
    21:00 +37°C° 0 mm 3 mps 705 mmHg 8%
    22:00 +35°C° 0 mm 3 mps 705 mmHg 8%
    23:00 +34°C° 0 mm 3 mps 706 mmHg 9%
    Show more